1484308800.08,31865,5.69,71498.8,-7.25,-9.27,-9.41,0,*59
1484308801.31,31866,5.69,71500.5,-7.23,-9.23,-9.37,0,*59
1484308802.56,31867,5.69,71498.3,-7.23,-9.11,-9.15,0,*59
1484308803.76,31868,5.69,71500.5,-7.23,-9.23,-9.27,0,*56
1484308804.95,31869,5.69,71502.5,-7.23,-9.27,-9.27,0,*53
1484308806.15,31870,5.69,71500.8,-7.23,-9.23,-9.23,0,*5B
1484308807.35,31871,5.69,71502.0,-7.23,-9.23,-9.23,0,*5A
1484308808.54,31872,5.69,71502.8,-7.23,-9.23,-9.23,0,*59
1484308809.77,31873,5.69,71500.0,-7.23,-9.15,-9.23,0,*5D
1484308811.0,31874,5.69,71500.8,-7.23,-9.11,-9.23,0,*5E
1484308812.25,31875,5.69,71504.0,-7.23,-9.11,-9.11,0,*5E
1484308813.5,31876,5.69,71498.3,-7.23,-9.11,-9.11,0,*5D
1484308814.76,31877,5.69,71496.8,-7.21,-9.01,-9.11,0,*5F
1484308816.01,31878,5.69,71496.3,-7.23,-9.11,-9.15,0,*57
1484308817.26,31879,5.69,71498.0,-7.21,-9.15,-9.27,0,*51
1484308818.51,31880,5.69,71490.8,-7.21,-9.15,-9.23,0,*53
1484308819.77,31881,5.69,71492.3,-7.23,-9.15,-9.11,0,*51
1484308821.03,31882,5.69,71492.5,-7.23,-9.15,-9.15,0,*56
1484308822.22,31883,5.69,71490.5,-7.23,-9.23,-9.27,0,*53
1484308823.45,31884,5.69,71488.5,-7.21,-9.27,-9.27,0,*52
1484308824.7,31885,5.69,71492.5,-7.23,-9.37,-9.41,0,*50
1484308825.95,31886,5.69,71492.0,-7.23,-9.37,-9.49,0,*5B
1484308827.17,31887,5.69,71490.3,-7.23,-9.27,-9.41,0,*53
1484308828.45,31888,5.69,71490.8,-7.21,-9.37,-9.37,0,*5E
1484308829.67,31889,5.69,71488.3,-7.21,-9.27,-9.27,0,*5F
1484308830.92,31890,5.69,71496.0,-7.23,-9.49,-9.53,0,*5E
1484308832.16,31891,5.69,71494.3,-7.21,-9.61,-9.67,0,*50
1484308833.38,31892,5.69,71494.8,-7.21,-9.67,-9.67,0,*55
1484308834.63,31893,5.69,71498.5,-7.23,-9.61,-9.61,0,*56
1484308835.9,31894,5.69,71496.3,-7.21,-9.53,-9.53,0,*53
1484308837.14,31895,5.69,71500.8,-7.23,-9.49,-9.49,0,*50
1484308838.4,31896,5.69,71496.0,-7.23,-9.41,-9.37,0,*52
1484308839.62,31897,5.69,71496.5,-7.21,-9.27,-9.27,0,*50
1484308840.81,31898,5.69,71500.5,-7.23,-9.23,-9.23,0,*5D
1484308842.03,31899,5.69,71502.8,-7.21,-9.23,-9.23,0,*5E
1484308843.28,31900,5.69,71500.5,-7.21,-9.27,-9.37,0,*5E
1484308844.53,31901,5.69,71500.3,-7.21,-9.61,-9.67,0,*58
1484308845.75,31902,5.69,71498.3,-7.21,-9.67,-9.67,0,*5D
1484308846.99,31903,5.69,71502.8,-7.23,-9.61,-9.61,0,*5E
1484308848.26,31904,5.69,71504.8,-7.21,-9.61,-9.53,0,*5A
1484308849.53,31905,5.69,71502.5,-7.21,-9.49,-9.49,0,*5A
1484308850.77,31906,5.69,71500.3,-7.23,-9.49,-9.53,0,*50
1484308852.0,31907,5.69,71496.8,-7.21,-9.27,-9.27,0,*58
1484308853.27,31908,5.69,71496.5,-7.21,-9.53,-9.53,0,*57
1484308854.46,31909,5.69,71496.3,-7.23,-9.23,-9.23,0,*54
1484308855.66,31910,5.69,71498.8,-7.23,-9.23,-9.23,0,*5C
1484308856.88,31911,5.69,71502.5,-7.21,-9.27,-9.27,0,*5F
1484308858.14,31912,5.69,71502.0,-7.17,-9.23,-9.37,0,*5C
1484308859.36,31913,5.69,71502.3,-7.15,-9.23,-9.37,0,*5F
1484308860.63,31914,5.69,71502.0,-7.17,-9.45,-9.57,0,*5C
1484308861.91,31915,5.69,71500.5,-7.17,-9.37,-9.49,0,*57
1484308863.15,31916,5.69,71500.3,-7.15,-9.45,-9.57,0,*5C
1484308864.43,31917,5.69,71500.0,-7.21,-9.37,-9.53,0,*5B
1484308865.71,31918,5.69,71502.8,-7.17,-9.37,-9.49,0,*5A
1484308866.98,31919,5.69,71500.3,-7.17,-9.49,-9.57,0,*5D
1484308868.25,31920,5.69,71500.3,-7.17,-9.45,-9.61,0,*5E
1484308869.53,31921,5.69,71498.8,-7.17,-9.37,-9.45,0,*5C
1484308870.75,31922,5.69,71500.5,-7.17,-9.23,-9.31,0,*59
1484308871.98,31923,5.69,71502.3,-7.15,-9.23,-9.37,0,*5C
1484308873.23,31924,5.69,71500.5,-7.15,-9.37,-9.49,0,*57
1484308874.48,31925,5.69,71502.5,-7.15,-9.37,-9.49,0,*56
1484308875.71,31926,5.69,71498.8,-7.15,-9.57,-9.57,0,*5C
1484308876.97,31927,5.69,71498.3,-7.15,-9.37,-9.45,0,*58
1484308878.24,31928,5.69,71500.3,-7.17,-9.49,-9.49,0,*50
1484308879.48,31929,5.69,71498.8,-7.15,-9.45,-9.57,0,*50
1484308880.73,31930,5.69,71504.3,-7.15,-9.49,-9.49,0,*5B
1484308882.0,31931,5.69,71500.8,-7.17,-9.61,-9.61,0,*58
1484308883.23,31932,5.69,71498.5,-7.15,-9.57,-9.57,0,*59
1484308884.48,31933,5.69,71500.5,-7.15,-9.45,-9.49,0,*54
1484308885.75,31934,5.69,71500.3,-7.13,-9.41,-9.45,0,*5D
1484308886.99,31935,5.69,71500.5,-7.13,-9.31,-9.41,0,*5F
1484308888.24,31936,5.69,71498.8,-7.13,-9.31,-9.41,0,*5C
1484308889.49,31937,5.69,71500.8,-7.13,-9.57,-9.57,0,*5A
1484308890.73,31938,5.69,71500.8,-7.11,-9.57,-9.57,0,*57
1484308891.94,31939,5.69,71500.3,-7.13,-9.67,-9.71,0,*53
1484308893.14,31940,5.69,71502.8,-7.11,-9.67,-9.67,0,*58
1484308894.33,31941,5.69,71502.5,-7.11,-9.67,-9.67,0,*59
1484308895.58,31942,5.69,71496.3,-7.11,-9.45,-9.53,0,*5D
1484308896.82,31943,5.69,71498.8,-7.11,-9.53,-9.57,0,*5F
1484308898.08,31944,5.69,71502.8,-7.13,-9.57,-9.53,0,*5A
1484308899.27,31945,5.69,71500.5,-7.11,-9.67,-9.71,0,*5A
1484308900.47,31946,5.69,71498.0,-7.11,-9.67,-9.67,0,*5E
1484308901.67,31947,5.69,71502.3,-7.11,-9.71,-9.67,0,*58
1484308902.88,31948,5.69,71506.0,-7.11,-9.57,-9.67,0,*53
1484308904.1,31949,5.69,71502.5,-7.13,-9.67,-9.71,0,*54
1484308905.32,31950,5.69,71502.3,-7.13,-9.67,-9.67,0,*5B
1484308906.51,31951,5.69,71502.3,-7.11,-9.67,-9.67,0,*58
1484308907.71,31952,5.69,71502.0,-7.11,-9.71,-9.71,0,*5B
1484308908.9,31953,5.69,71502.5,-7.11,-9.67,-9.67,0,*5A
1484308910.09,31954,5.69,71502.5,-7.11,-9.89,-9.97,0,*52
1484308911.28,31955,5.69,71502.3,-7.11,-9.97,-9.97,0,*5C
1484308912.49,31956,5.69,71500.3,-7.13,-9.89,-9.97,0,*52
1484308913.7,31957,5.69,71500.3,-7.13,-9.89,-9.89,0,*5C
1484308914.94,31958,5.69,71500.0,-7.11,-9.83,-9.83,0,*51
1484308916.13,31959,5.69,71498.0,-7.11,-9.75,-9.75,0,*50
1484308917.37,31960,5.69,71500.5,-7.13,-9.83,-9.89,0,*52
1484308918.6,31961,5.69,71500.8,-7.13,-9.83,-9.97,0,*5C
1484308919.79,31962,5.69,71502.5,-7.11,-9.89,-9.89,0,*58
1484308921.0,31963,5.69,71498.8,-7.13,-9.75,-9.89,0,*58
1484308922.24,31964,5.69,71498.8,-7.13,-10.15,-10.23,0,*59
1484308923.47,31965,5.69,71502.3,-7.13,-10.15,-10.27,0,*5C
1484308924.69,31966,5.69,71498.5,-7.13,-9.89,-10.01,0,*66
1484308925.93,31967,5.69,71498.5,-7.13,-10.01,-10.15,0,*5A
1484308927.15,31968,5.69,71500.3,-7.13,-10.09,-10.15,0,*5D
1484308928.38,31969,5.69,71500.3,-7.13,-10.15,-10.23,0,*54
1484308929.6,31970,5.69,71502.0,-7.13,-9.89,-10.01,0,*61
1484308930.83,31971,5.69,71496.8,-7.13,-9.89,-10.01,0,*60
1484308932.05,31972,5.69,71502.0,-7.13,-9.89,-10.01,0,*63
1484308933.28,31973,5.69,71500.3,-7.13,-10.01,-10.15,0,*5F
1484308934.51,31974,5.69,71498.3,-7.13,-10.15,-10.27,0,*5C
1484308935.75,31975,5.69,71498.5,-7.13,-10.23,-10.35,0,*5B
1484308936.99,31976,5.69,71496.5,-7.13,-10.15,-10.27,0,*5E
1484308938.19,31977,5.69,71498.5,-7.15,-10.05,-10.15,0,*59
1484308939.41,31978,5.69,71502.5,-7.13,-9.75,-9.75,0,*51
1484308940.64,31979,5.69,71496.8,-7.13,-9.97,-10.01,0,*67
1484308941.85,31980,5.69,71500.8,-7.13,-9.75,-9.89,0,*55
1484308943.1,31981,5.69,71496.5,-7.13,-9.75,-9.83,0,*5E
1484308944.36,31982,5.69,71502.3,-7.13,-9.83,-9.83,0,*54
1484308945.59,31983,5.69,71500.3,-7.13,-9.83,-9.97,0,*50
1484308946.81,31984,5.69,71502.3,-7.13,-9.97,-10.09,0,*6D
1484308948.01,31985,5.69,71500.3,-7.11,-9.97,-10.15,0,*63
1484308949.25,31986,5.69,71500.5,-7.13,-10.15,-10.27,0,*51
1484308950.49,31987,5.69,71500.8,-7.13,-10.23,-10.35,0,*56
1484308951.71,31988,5.69,71500.3,-7.13,-10.01,-10.09,0,*56
1484308952.93,31989,5.69,71500.5,-7.13,-10.09,-10.09,0,*5F
1484308954.14,31990,5.69,71502.5,-7.11,-10.01,-10.15,0,*50
1484308955.37,31991,5.69,71496.8,-7.13,-10.15,-10.23,0,*53
1484308956.6,31992,5.69,71498.8,-7.13,-10.15,-10.23,0,*50
1484308957.83,31993,5.69,71502.0,-7.13,-10.01,-10.23,0,*54
1484308959.05,31994,5.69,71502.3,-7.13,-10.09,-10.23,0,*5B
1484308960.27,31995,5.69,71502.3,-7.13,-9.89,-10.01,0,*6A
1484308961.47,31996,5.69,71502.5,-7.11,-9.97,-10.01,0,*64
1484308962.7,31997,5.69,71502.8,-7.13,-10.01,-10.15,0,*55
1484308963.94,31998,5.69,71498.3,-7.13,-10.23,-10.35,0,*58
1484308965.17,31999,5.69,71494.8,-7.13,-10.15,-10.23,0,*5B
1484308966.4,32000,5.69,71500.0,-7.13,-10.23,-10.35,0,*53
1484308967.64,32001,5.69,71498.3,-7.13,-10.23,-10.27,0,*51
1484308968.87,32002,5.69,71498.8,-7.13,-10.23,-10.23,0,*56
1484308970.1,32003,5.69,71498.0,-7.13,-10.27,-10.35,0,*54
1484308971.31,32004,5.69,71498.3,-7.11,-10.27,-10.35,0,*51
1484308972.53,32005,5.69,71498.0,-7.13,-10.09,-10.23,0,*59
1484308973.77,32006,5.69,71498.5,-7.13,-10.27,-10.35,0,*51
1484308975.01,32007,5.69,71498.8,-7.13,-10.35,-10.35,0,*53
1484308976.3,32008,5.69,71498.3,-7.13,-10.41,-10.41,0,*5C
1484308977.55,32009,5.69,71498.0,-7.13,-10.41,-10.53,0,*5E
1484308978.82,32010,5.69,71502.3,-7.13,-10.35,-10.41,0,*56
1484308980.07,32011,5.69,71498.3,-7.13,-10.49,-10.67,0,*58
1484308981.28,32012,5.69,71504.3,-7.15,-10.53,-10.57,0,*55
1484308982.48,32013,5.69,71502.5,-7.15,-10.45,-10.57,0,*53
1484308983.72,32014,5.69,71498.8,-7.15,-10.41,-10.45,0,*53
1484308984.93,32015,5.69,71500.0,-7.15,-10.45,-10.53,0,*51
1484308986.17,32016,5.69,71502.0,-7.15,-10.19,-10.41,0,*58
1484308987.38,32017,5.69,71500.3,-7.15,-10.15,-10.27,0,*55
1484308988.6,32018,5.69,71502.5,-7.15,-10.27,-10.31,0,*5C
1484308989.84,32019,5.69,71502.0,-7.15,-10.31,-10.41,0,*5D
1484308991.09,32020,5.69,71502.8,-7.13,-10.27,-10.41,0,*56
1484308992.31,32021,5.69,71504.5,-7.15,-10.15,-10.31,0,*57
1484308993.57,32022,5.69,71500.8,-7.15,-10.41,-10.41,0,*52
1484308994.81,32023,5.69,71500.0,-7.15,-10.45,-10.75,0,*50
1484308996.04,32024,5.69,71502.0,-7.15,-10.57,-10.75,0,*54
1484308997.27,32025,5.69,71498.3,-7.15,-10.45,-10.71,0,*52
1484308998.5,32026,5.69,71500.8,-7.15,-10.53,-10.71,0,*56
1484308999.76,32027,5.69,71502.3,-7.17,-10.45,-10.71,0,*52
1484309000.99,32028,5.69,71500.8,-7.17,-10.45,-10.53,0,*5D
1484309002.2,32029,5.69,71502.8,-7.15,-10.31,-10.45,0,*5A
1484309003.49,32030,5.69,71502.5,-7.17,-10.41,-10.71,0,*50
1484309004.72,32031,5.69,71506.5,-7.17,-10.45,-10.57,0,*51
1484309005.93,32032,5.69,71502.3,-7.15,-10.45,-10.57,0,*50
1484309007.2,32033,5.69,71504.5,-7.17,-10.31,-10.41,0,*57
1484309008.43,32034,5.69,71502.8,-7.17,-10.31,-10.45,0,*54
1484309009.67,32035,5.69,71504.3,-7.15,-10.41,-10.53,0,*57
1484309010.93,32036,5.69,71504.0,-7.17,-10.45,-10.71,0,*52
1484309012.18,32037,5.69,71500.0,-7.17,-10.53,-10.75,0,*50
1484309013.42,32038,5.69,71498.8,-7.17,-10.45,-10.53,0,*5C
1484309014.61,32039,5.69,71496.5,-7.15,-10.53,-10.85,0,*53
1484309015.82,32040,5.69,71500.8,-7.15,-10.57,-10.89,0,*55
1484309017.08,32041,5.69,71502.0,-7.17,-10.53,-10.71,0,*55
1484309018.31,32042,5.69,71500.8,-7.17,-10.45,-10.57,0,*55
1484309019.57,32043,5.69,71502.8,-7.17,-10.41,-10.53,0,*54
1484309020.83,32044,5.69,71498.5,-7.21,-10.57,-10.79,0,*59
1484309022.09,32045,5.69,71502.5,-7.21,-10.57,-10.63,0,*53
1484309023.35,32046,5.69,71504.5,-7.17,-10.53,-10.71,0,*52
1484309024.58,32047,5.69,71502.5,-7.17,-10.45,-10.53,0,*54
1484309025.87,32048,5.69,71498.8,-7.17,-10.41,-10.71,0,*5F
1484309027.1,32049,5.69,71502.8,-7.17,-10.45,-10.57,0,*5E
1484309028.36,32050,5.69,71502.8,-7.17,-10.53,-10.71,0,*55
1484309029.64,32051,5.69,71498.8,-7.21,-10.63,-10.79,0,*5A
1484309030.9,32052,5.69,71502.5,-7.21,-10.49,-10.63,0,*5A
1484309032.13,32053,5.69,71506.0,-7.17,-10.45,-10.57,0,*55
1484309033.4,32054,5.69,71504.5,-7.21,-10.71,-10.89,0,*53
1484309034.65,32055,5.69,71506.5,-7.21,-10.71,-10.89,0,*52
1484309035.91,32056,5.69,71500.0,-7.21,-10.57,-10.79,0,*5A
1484309037.18,32057,5.69,71496.8,-7.23,-10.63,-10.79,0,*5E
1484309038.44,32058,5.69,71496.5,-7.21,-10.49,-10.79,0,*5B
1484309039.69,32059,5.69,71496.0,-7.21,-10.49,-10.75,0,*56
1484309040.95,32060,5.69,71496.5,-7.21,-10.57,-10.79,0,*5F
1484309042.19,32061,5.69,71498.5,-7.23,-10.49,-10.63,0,*58
1484309043.48,32062,5.69,71496.8,-7.21,-10.63,-10.75,0,*56
1484309044.76,32063,5.69,71500.0,-7.21,-10.63,-10.79,0,*5B
1484309046.05,32064,5.69,71500.5,-7.21,-10.63,-10.75,0,*50
1484309047.26,32065,5.69,71500.8,-7.23,-10.45,-10.57,0,*57
1484309048.52,32066,5.69,71498.0,-7.21,-10.57,-10.63,0,*52
1484309049.78,32067,5.69,71496.3,-7.21,-10.57,-10.79,0,*58
1484309051.04,32068,5.69,71498.3,-7.21,-10.57,-10.79,0,*57
1484309052.27,32069,5.69,71496.5,-7.23,-10.71,-10.93,0,*54
1484309053.53,32070,5.69,71498.5,-7.21,-10.57,-10.75,0,*52
1484309054.79,32071,5.69,71502.5,-7.21,-10.57,-10.75,0,*53
1484309056.08,32072,5.69,71498.8,-7.21,-10.63,-10.75,0,*57
1484309057.29,32073,5.69,71498.3,-7.23,-10.45,-10.49,0,*5F
1484309058.5,32074,5.69,71498.5,-7.23,-10.45,-10.49,0,*58
1484309059.76,32075,5.69,71498.0,-7.23,-10.63,-10.79,0,*5E
1484309061.0,32076,5.69,71500.5,-7.23,-10.57,-10.75,0,*56
1484309062.26,32077,5.69,71496.3,-7.21,-10.79,-11.01,0,*5B
1484309063.52,32078,5.69,71498.8,-7.23,-10.79,-11.07,0,*50
1484309064.78,32079,5.69,71498.5,-7.21,-10.71,-10.89,0,*5C
1484309066.06,32080,5.69,71500.3,-7.21,-10.63,-10.79,0,*56
1484309067.35,32081,5.69,71500.0,-7.21,-10.63,-10.75,0,*5B
1484309068.59,32082,5.69,71496.8,-7.23,-10.71,-10.89,0,*5A
1484309069.82,32083,5.69,71500.5,-7.23,-10.49,-10.63,0,*54
1484309071.06,32084,5.69,71498.0,-7.23,-10.57,-10.75,0,*5B
1484309072.35,32085,5.69,71494.0,-7.21,-10.71,-10.79,0,*50
1484309073.55,32086,5.69,71492.8,-7.23,-10.49,-10.57,0,*56
1484309074.76,32087,5.69,71492.5,-7.23,-10.45,-10.57,0,*5B
1484309076.0,32088,5.69,71498.0,-7.21,-10.57,-10.57,0,*55
1484309077.23,32089,5.69,71498.0,-7.23,-10.57,-10.75,0,*56
1484309078.49,32090,5.69,71496.5,-7.21,-10.49,-10.63,0,*54
1484309079.75,32091,5.69,71498.8,-7.21,-10.49,-10.75,0,*52
1484309080.96,32092,5.69,71496.8,-7.23,-10.49,-10.57,0,*53
1484309082.19,32093,5.69,71498.0,-7.21,-10.49,-10.49,0,*5F
1484309083.43,32094,5.69,71496.0,-7.21,-10.35,-10.45,0,*5F
1484309084.68,32095,5.69,71500.8,-7.21,-10.45,-10.63,0,*5D
1484309085.94,32096,5.69,71496.8,-7.21,-10.57,-10.63,0,*5D
1484309087.2,32097,5.69,71496.3,-7.21,-10.49,-10.63,0,*53
1484309088.43,32098,5.69,71494.3,-7.21,-10.49,-10.57,0,*5B
1484309089.72,32099,5.69,71496.0,-7.21,-10.63,-10.75,0,*52
1484309090.95,32100,5.69,71500.0,-7.21,-10.49,-10.57,0,*5B
1484309092.19,32101,5.69,71496.8,-7.21,-10.57,-10.57,0,*55
1484309093.42,32102,5.69,71500.3,-7.17,-10.53,-10.57,0,*57
1484309094.68,32103,5.69,71498.3,-7.21,-10.71,-10.93,0,*5B
1484309095.94,32104,5.69,71498.3,-7.17,-10.57,-10.75,0,*55
1484309097.21,32105,5.69,71498.3,-7.17,-10.71,-10.97,0,*5C
1484309098.47,32106,5.69,71496.5,-7.17,-10.57,-10.75,0,*57
1484309099.76,32107,5.69,71494.5,-7.17,-10.67,-10.71,0,*51
1484309101.05,32108,5.69,71492.0,-7.17,-10.71,-10.75,0,*5D
1484309102.29,32109,5.69,71494.0,-7.15,-10.57,-10.75,0,*5A
1484309103.55,32110,5.69,71492.0,-7.17,-10.75,-10.97,0,*5C
1484309104.82,32111,5.69,71496.3,-7.17,-10.75,-10.97,0,*5D
1484309106.06,32112,5.69,71498.5,-7.17,-10.85,-10.97,0,*51
1484309107.31,32113,5.69,71496.8,-7.21,-10.79,-11.01,0,*58
1484309108.57,32114,5.69,71492.8,-7.21,-10.75,-10.93,0,*59
1484309109.8,32115,5.69,71494.0,-7.21,-10.57,-10.57,0,*50
1484309111.04,32116,5.69,71498.3,-7.21,-10.49,-10.49,0,*53
1484309112.32,32117,5.69,71498.3,-7.21,-10.71,-10.79,0,*5A
1484309113.61,32118,5.69,71496.5,-7.21,-10.71,-10.79,0,*55
1484309114.9,32119,5.69,71496.3,-7.21,-10.63,-10.75,0,*5B
1484309116.16,32120,5.69,71496.8,-7.17,-10.57,-10.71,0,*57
1484309117.39,32121,5.69,71498.3,-7.17,-10.53,-10.57,0,*56
1484309118.64,32122,5.69,71498.0,-7.17,-10.53,-10.71,0,*51
1484309119.9,32123,5.69,71496.5,-7.17,-10.57,-10.71,0,*54
1484309121.14,32124,5.69,71496.8,-7.15,-10.57,-10.75,0,*55
1484309122.4,32125,5.69,71494.8,-7.15,-10.71,-10.75,0,*50
1484309123.64,32126,5.69,71498.5,-7.15,-10.57,-10.71,0,*53
1484309124.9,32127,5.69,71496.8,-7.15,-10.67,-10.75,0,*55
1484309126.17,32128,5.69,71492.0,-7.15,-10.67,-10.75,0,*5A
1484309127.43,32129,5.69,71496.0,-7.17,-10.75,-10.85,0,*55
1484309128.66,32130,5.69,71498.0,-7.17,-10.85,-10.89,0,*5E
1484309129.92,32131,5.69,71492.3,-7.17,-10.71,-10.85,0,*58
1484309131.15,32132,5.69,71494.5,-7.15,-10.75,-10.97,0,*5E
1484309132.39,32133,5.69,71492.3,-7.15,-10.75,-10.89,0,*50
1484309133.65,32134,5.69,71490.5,-7.17,-10.71,-10.89,0,*51
1484309134.88,32135,5.69,71494.5,-7.15,-10.53,-10.71,0,*55
1484309136.09,32136,5.69,71492.0,-7.15,-10.57,-10.57,0,*56
1484309137.32,32137,5.69,71492.3,-7.15,-10.57,-10.75,0,*57
1484309138.56,32138,5.69,71496.5,-7.15,-10.57,-10.75,0,*58
1484309139.79,32139,5.69,71498.8,-7.15,-10.71,-10.89,0,*5E
1484309141.02,32140,5.69,71492.3,-7.15,-10.71,-10.85,0,*5C
1484309142.26,32141,5.69,71496.8,-7.17,-10.85,-11.01,0,*59
1484309143.49,32142,5.69,71496.0,-7.15,-10.75,-10.97,0,*59
1484309144.7,32143,5.69,71492.0,-7.15,-10.85,-10.89,0,*58
1484309145.91,32144,5.69,71492.8,-7.15,-10.85,-11.01,0,*5E
1484309147.12,32145,5.69,71494.5,-7.15,-10.97,-11.15,0,*59
1484309148.33,32146,5.69,71492.5,-7.15,-10.89,-11.01,0,*50
1484309149.56,32147,5.69,71492.3,-7.17,-11.01,-11.15,0,*57
1484309150.77,32148,5.69,71496.3,-7.15,-10.89,-11.15,0,*5B
1484309151.98,32149,5.69,71498.0,-7.15,-11.01,-11.15,0,*5B
1484309153.19,32150,5.69,71496.8,-7.15,-11.11,-11.15,0,*52
1484309154.4,32151,5.69,71496.0,-7.15,-10.97,-11.15,0,*5C
1484309155.61,32152,5.69,71494.3,-7.15,-11.01,-11.15,0,*51
1484309156.82,32153,5.69,71492.5,-7.15,-11.01,-11.23,0,*55
1484309158.05,32154,5.69,71496.3,-7.15,-11.15,-11.37,0,*52
1484309159.28,32155,5.69,71498.0,-7.15,-11.15,-11.37,0,*53
1484309160.51,32156,5.69,71494.5,-7.15,-11.11,-11.29,0,*5B
1484309161.72,32157,5.69,71494.8,-7.15,-11.15,-11.23,0,*54
1484309162.98,32158,5.69,71492.0,-7.17,-11.15,-11.29,0,*53
1484309164.24,32159,5.69,71490.8,-7.17,-11.15,-11.29,0,*52
1484309165.48,32160,5.69,71496.0,-7.17,-11.01,-11.15,0,*52
1484309166.71,32161,5.69,71494.0,-7.15,-11.15,-11.29,0,*5B
1484309167.97,32162,5.69,71494.0,-7.17,-11.15,-11.37,0,*55
1484309169.2,32163,5.69,71498.3,-7.17,-11.11,-11.15,0,*50
1484309170.41,32164,5.69,71490.3,-7.15,-11.11,-11.15,0,*55
1484309171.64,32165,5.69,71492.3,-7.17,-11.15,-11.23,0,*57
1484309172.9,32166,5.69,71492.5,-7.15,-11.29,-11.29,0,*53
1484309174.14,32167,5.69,71492.0,-7.17,-11.15,-11.23,0,*55
1484309175.37,32168,5.69,71490.8,-7.15,-11.23,-11.37,0,*58
1484309176.6,32169,5.69,71492.5,-7.17,-11.15,-11.23,0,*5B
1484309177.84,32170,5.69,71490.5,-7.17,-11.23,-11.23,0,*56
1484309179.07,32171,5.69,71494.3,-7.17,-11.23,-11.15,0,*52
1484309180.31,32172,5.69,71492.3,-7.17,-11.15,-11.15,0,*54
1484309181.52,32173,5.69,71492.8,-7.15,-11.11,-11.15,0,*53
1484309182.81,32174,5.69,71490.0,-7.17,-11.29,-11.29,0,*52
1484309184.07,32175,5.69,71486.8,-7.21,-11.29,-11.19,0,*55
1484309185.29,32176,5.69,71488.0,-7.21,-11.19,-11.19,0,*55
1484309186.55,32177,5.69,71484.5,-7.21,-11.15,-11.29,0,*5B
1484309187.78,32178,5.69,71486.3,-7.21,-11.15,-11.19,0,*57
1484309189.07,32179,5.69,71486.5,-7.21,-11.29,-11.29,0,*5A
1484309190.33,32180,5.69,71490.8,-7.23,-11.29,-11.29,0,*5E
1484309191.57,32181,5.69,71492.0,-7.23,-11.33,-11.41,0,*5A
1484309192.8,32182,5.69,71484.5,-7.21,-11.41,-11.45,0,*5A
1484309194.04,32183,5.69,71490.3,-7.21,-11.41,-11.45,0,*5B
1484309195.3,32184,5.69,71486.3,-7.23,-11.59,-11.59,0,*5A
1484309196.53,32185,5.69,71490.3,-7.21,-11.45,-11.45,0,*59
1484309197.77,32186,5.69,71488.0,-7.23,-11.33,-11.41,0,*5D
1484309199.03,32187,5.69,71490.0,-7.23,-11.29,-11.33,0,*52
1484309200.27,32188,5.69,71486.3,-7.21,-11.45,-11.41,0,*50
1484309201.48,32189,5.69,71490.0,-7.23,-11.41,-11.41,0,*57
1484309202.74,32190,5.69,71490.0,-7.23,-11.59,-11.59,0,*5F
1484309203.96,32191,5.69,71486.8,-7.23,-11.41,-11.45,0,*5A
1484309205.22,32192,5.69,71486.8,-7.23,-11.55,-11.55,0,*5D
1484309206.48,32193,5.69,71484.8,-7.21,-11.45,-11.55,0,*5F
1484309207.72,32194,5.69,71488.3,-7.23,-11.45,-11.55,0,*5A
1484309208.96,32195,5.69,71488.8,-7.23,-11.41,-11.55,0,*5F
1484309210.22,32196,5.69,71494.3,-7.21,-11.41,-11.55,0,*5E
1484309211.43,32197,5.69,71494.0,-7.23,-11.41,-11.45,0,*5C
1484309212.67,32198,5.69,71490.0,-7.23,-11.41,-11.55,0,*52
1484309213.91,32199,5.69,71488.3,-7.21,-11.45,-11.45,0,*54
1484309215.15,32200,5.69,71492.3,-7.23,-11.41,-11.55,0,*50
1484309216.39,32201,5.69,71494.8,-7.23,-11.45,-11.55,0,*55
1484309217.6,32202,5.69,71490.3,-7.23,-11.41,-11.45,0,*53
1484309218.81,32203,5.69,71494.5,-7.23,-11.41,-11.45,0,*52
1484309220.07,32204,5.69,71494.3,-7.23,-11.55,-11.59,0,*5D
1484309221.34,32205,5.69,71492.0,-7.23,-11.59,-11.63,0,*59
1484309222.55,32206,5.69,71494.0,-7.23,-11.41,-11.45,0,*57
1484309223.79,32207,5.69,71490.8,-7.23,-11.45,-11.55,0,*53
1484309225.05,32208,5.69,71492.3,-7.23,-11.51,-11.59,0,*55
1484309226.31,32209,5.69,71494.3,-7.23,-11.59,-11.63,0,*55
1484309227.55,32210,5.75,71492.8,-7.23,-11.45,-11.55,0,*55
1484309228.82,32211,5.69,71492.0,-7.23,-11.59,-11.63,0,*5C
1484309230.09,32212,5.69,71492.0,-7.23,-11.59,-11.63,0,*5F
1484309231.34,32213,5.69,71494.3,-7.23,-11.59,-11.73,0,*5F
1484309232.61,32214,5.69,71494.3,-7.25,-11.63,-11.67,0,*52
1484309233.86,32215,5.69,71490.0,-7.25,-11.51,-11.59,0,*5F
1484309235.13,32216,5.69,71492.5,-7.25,-11.59,-11.67,0,*59
1484309236.37,32217,5.69,71492.3,-7.25,-11.45,-11.59,0,*58
1484309237.63,32218,5.75,71496.3,-7.25,-11.63,-11.67,0,*5E
1484309238.89,32219,5.69,71494.3,-7.25,-11.63,-11.77,0,*5E
1484309240.15,32220,5.69,71498.0,-7.25,-11.77,-11.81,0,*58
1484309241.4,32221,5.75,71496.5,-7.25,-11.67,-11.77,0,*51
1484309242.66,32222,5.69,71496.5,-7.25,-11.67,-11.81,0,*5B
1484309243.94,32223,5.75,71496.3,-7.27,-11.67,-11.77,0,*51
1484309245.2,32224,5.69,71496.8,-7.25,-11.63,-11.81,0,*59
1484309246.49,32225,5.69,71492.5,-7.27,-11.77,-11.89,0,*57
1484309247.75,32226,5.75,71498.0,-7.25,-11.67,-11.89,0,*57
1484309249.0,32227,5.69,71494.8,-7.25,-11.77,-11.81,0,*5F
1484309250.26,32228,5.75,71496.8,-7.25,-11.67,-11.77,0,*58
1484309251.52,32229,5.69,71494.0,-7.25,-11.77,-11.89,0,*59
1484309252.76,32230,5.69,71496.5,-7.25,-11.89,-12.03,0,*51
1484309254.05,32231,5.69,71498.5,-7.27,-11.89,-11.93,0,*58
1484309255.33,32232,5.69,71498.0,-7.27,-11.81,-11.93,0,*53
1484309256.62,32233,5.69,71490.8,-7.27,-11.93,-12.07,0,*5F
1484309257.86,32234,5.69,71488.8,-7.25,-11.89,-12.03,0,*55
1484309259.12,32235,5.69,71494.5,-7.27,-11.89,-12.03,0,*56
1484309260.41,32236,5.69,71494.0,-7.27,-11.77,-11.93,0,*5E
1484309261.66,32237,5.69,71492.8,-7.27,-12.03,-12.15,0,*52
1484309262.92,32238,5.69,71492.5,-7.25,-11.77,-11.93,0,*52
1484309264.21,32239,5.75,71492.5,-7.27,-11.77,-11.93,0,*51
1484309265.5,32240,5.69,71492.8,-7.27,-11.89,-12.07,0,*50
1484309266.76,32241,5.69,71492.8,-7.29,-11.93,-12.11,0,*53
1484309268.04,32242,5.69,71490.0,-7.27,-12.07,-12.07,0,*57
1484309269.33,32243,5.69,71494.5,-7.27,-11.93,-12.07,0,*58
1484309270.59,32244,5.69,71492.5,-7.27,-11.81,-12.03,0,*58
1484309271.88,32245,5.69,71486.8,-7.27,-11.77,-11.93,0,*5A
1484309273.13,32246,5.69,71490.0,-7.29,-11.73,-11.73,0,*5D
1484309274.38,32247,5.69,71486.3,-7.29,-11.81,-11.85,0,*58
1484309275.62,32248,5.69,71488.0,-7.29,-11.73,-11.81,0,*5E
1484309276.87,32249,5.69,71488.5,-7.29,-11.73,-11.81,0,*5F
1484309278.12,32250,5.69,71488.5,-7.29,-11.81,-11.97,0,*5D
1484309279.37,32251,5.69,71488.8,-7.29,-11.97,-12.11,0,*56
1484309280.63,32252,5.69,71492.0,-7.29,-11.97,-12.11,0,*55
1484309281.85,32253,5.75,71492.3,-7.29,-11.97,-12.25,0,*53
1484309283.11,32254,5.69,71488.5,-7.29,-11.97,-11.97,0,*5E
1484309284.37,32255,5.69,71484.0,-7.29,-11.93,-11.93,0,*5F
1484309285.6,32256,5.69,71486.5,-7.29,-12.07,-12.21,0,*58
1484309286.86,32257,5.69,71486.3,-7.31,-12.03,-12.15,0,*53
1484309288.11,32258,5.75,71488.0,-7.29,-12.07,-12.11,0,*55
1484309289.37,32259,5.69,71488.5,-7.29,-11.97,-12.11,0,*5E
1484309290.62,32260,5.75,71492.3,-7.29,-11.97,-12.07,0,*53
1484309291.87,32261,5.69,71490.8,-7.29,-11.85,-11.97,0,*5B
1484309293.13,32262,5.69,71490.0,-7.29,-11.81,-11.93,0,*58
1484309294.39,32263,5.69,71488.5,-7.29,-11.93,-12.07,0,*54
1484309295.65,32264,5.69,71490.3,-7.31,-11.97,-12.03,0,*5A
1484309296.89,32265,5.69,71488.0,-7.31,-12.25,-12.29,0,*59
1484309298.14,32266,5.69,71488.3,-7.31,-12.03,-11.97,0,*58
1484309299.42,32267,5.69,71486.8,-7.31,-12.11,-12.15,0,*53
1484309300.71,32268,5.69,71484.0,-7.31,-11.97,-12.15,0,*51
1484309301.96,32269,5.69,71488.0,-7.31,-12.11,-12.25,0,*5E
1484309303.2,32270,5.69,71488.3,-7.31,-12.03,-12.25,0,*55
1484309304.48,32271,5.69,71490.3,-7.31,-11.89,-11.97,0,*5F
1484309305.73,32272,5.69,71490.5,-7.29,-11.85,-11.97,0,*59
1484309307.01,32273,5.69,71488.5,-7.31,-11.85,-11.97,0,*51
1484309308.3,32274,5.69,71488.3,-7.31,-11.85,-11.89,0,*59
1484309309.55,32275,5.75,71490.8,-7.29,-11.77,-11.85,0,*50